Terminal Aerodrome Forecast
Issued by NWS Amarillo, TX

Home | Current Version | Previous Version | Text Only | Print | Product List | Glossary On
Versions: 1 2 3 4 5 6 7 8 9 10 11 12 13 14 15 16 17 18 19
000
FTUS44 KAMA 171200 AAA
TAFAMA
TAF AMD
KAMA 171230Z 1713/1812 03016G21KT P6SM BKN018
     FM172000 07010KT P6SM BKN050
     FM180800 16010KT P6SM BKN040=

USA.gov is the U.S. government's official web portal to all federal, state and local government web resources and services.